Newark, NJ

9:40 PM EDT on October 14, 2019 (GMT -0400)
Newark International

Weather History for KEWR - May, 2019

Change the Weather History Date:

Friday, May 17, 2019

  Actual Average Record
Temperature  
Mean Temperature 68 °F 63 °F  
Max Temperature 80 °F 72 °F 94 °F (1974)
Min Temperature 55 °F 54 °F 39 °F (1956)
Degree Days  
Heating Degree Days 0 4  
Month to date heating degree days 104 97  
Since 1 July heating degree days 4698 4817  
Cooling Degree Days 2 2  
Month to date cooling degree days 5 21  
Year to date cooling degree days 20 33  
Growing Degree Days 18 (Base 50)    
Moisture  
Dew Point 54 °F    
Average Humidity 59    
Maximum Humidity 78    
Minimum Humidity 43    
Precipitation  
Precipitation 0.02 in 0.14 in 0.71 in (1989)
Month to date precipitation 4.67 2.13  
Year to date precipitation 20.32 16.93  
Snow  
Snow 0.00 in 0.00 in 0.00 in (2002)
Month to date snowfall 0.0 0.0  
Since 1 July snowfall 22.0 28.5  
Snow Depth 0.00 in    
Sea Level Pressure  
Sea Level Pressure 29.78 in    
Wind  
Wind Speed 8 mph ()    
Max Wind Speed 20 mph    
Max Gust Speed 24 mph    
Visibility 10.0 miles    
Events Rain    
T = Trace of Precipitation, MM = Missing Value Source: Averaged Metar Reports

Daily Weather History Graph

Daily Weather History Graph

Search for Another Location

Airport or City:

Astronomy

May. 17, 2019 Rise Set
Actual Time 5:38 AM EDT 8:08 PM EDT
Civil Twilight 5:06 AM EDT 8:39 PM EDT
Nautical Twilight 4:28 AM EDT 9:18 PM EDT
Astronomical Twilight 3:44 AM EDT 10:02 PM EDT
Moon 6:53 PM EDT (5/17) 5:08 AM EDT (5/17)
Length of Visible Light 15h 33m
Length of Day
14h 30m
Waxing Gibbous, 98% of the Moon is Illuminated
May 17
Waxing Gibbous
May 18
Full
May 26
Last Quarter
Jun 3
New
Jun 10
First Quarter

Hourly Weather History & Observations

Time (EDT) Temp. Dew Point Humidity Pressure Visibility Wind Dir Wind Speed Gust Speed Precip Events Conditions
12:51 AM 63.0 °F 48.0 °F 58% 29.86 in 10.0 mi Calm Calm - N/A   Mostly Cloudy
1:51 AM 57.9 °F 46.9 °F 67% 29.85 in 10.0 mi SSW 4.6 mph - N/A   Mostly Cloudy
2:51 AM 61.0 °F 48.0 °F 62% 29.84 in 10.0 mi SW 9.2 mph - N/A   Mostly Cloudy
3:51 AM 60.1 °F 48.9 °F 67% 29.82 in 10.0 mi SW 11.5 mph - N/A   Mostly Cloudy
4:51 AM 57.9 °F 48.0 °F 70% 29.82 in 10.0 mi WSW 4.6 mph - N/A   Scattered Clouds
5:51 AM 55.9 °F 48.9 °F 77% 29.81 in 10.0 mi SW 5.8 mph - N/A   Scattered Clouds
6:51 AM 62.1 °F 53.1 °F 72% 29.82 in 10.0 mi SW 10.4 mph - N/A   Mostly Cloudy
7:51 AM 64.0 °F 52.0 °F 65% 29.82 in 10.0 mi SW 15.0 mph - N/A   Mostly Cloudy
8:51 AM 68.0 °F 54.0 °F 61% 29.81 in 10.0 mi SW 10.4 mph - N/A   Mostly Cloudy
9:51 AM 72.0 °F 54.0 °F 53% 29.79 in 10.0 mi SW 10.4 mph - N/A   Mostly Cloudy
10:51 AM 73.9 °F 54.0 °F 50% 29.77 in 10.0 mi South 9.2 mph - N/A   Mostly Cloudy
11:51 AM 77.0 °F 54.0 °F 45% 29.75 in 10.0 mi SW 15.0 mph 21.9 mph N/A   Mostly Cloudy
12:51 PM 73.0 °F 55.9 °F 55% 29.76 in 10.0 mi SW 15.0 mph 23.0 mph 0.00 in Rain Light Rain
1:51 PM 73.0 °F 60.1 °F 64% 29.74 in 10.0 mi WSW 4.6 mph - 0.02 in   Overcast
2:51 PM 78.1 °F 55.9 °F 46% 29.72 in 10.0 mi SW 16.1 mph 24.2 mph N/A   Mostly Cloudy
3:51 PM 78.1 °F 55.9 °F 46% 29.71 in 10.0 mi SW 18.4 mph - N/A   Mostly Cloudy
4:51 PM 78.1 °F 55.9 °F 46% 29.71 in 10.0 mi West 15.0 mph 20.7 mph N/A   Mostly Cloudy
5:51 PM 77.0 °F 55.9 °F 48% 29.73 in 10.0 mi West 11.5 mph - N/A   Mostly Cloudy
6:51 PM 78.1 °F 55.9 °F 46% 29.72 in 10.0 mi SW 13.8 mph - N/A   Scattered Clouds
7:51 PM 77.0 °F 57.0 °F 50% 29.73 in 10.0 mi WSW 11.5 mph - N/A   Mostly Cloudy
8:51 PM 73.9 °F 59.0 °F 59% 29.76 in 10.0 mi SW 11.5 mph - N/A   Mostly Cloudy
9:51 PM 71.1 °F 61.0 °F 70% 29.79 in 10.0 mi WNW 10.4 mph - 0.00 in   Mostly Cloudy
10:51 PM 70.0 °F 62.1 °F 76% 29.80 in 10.0 mi North 4.6 mph - N/A   Mostly Cloudy
11:51 PM 69.1 °F 55.0 °F 61% 29.83 in 10.0 mi NW 9.2 mph - N/A   Mostly Cloudy